Stations météo

réclame
Mon MeteoGroup
Arvidsjaur, Suède (2149): Température de l'air & dewpoint: 11.07.2018 13:00:00 - 17.07.2018 13:00:00 (CEST)Arvidsjaur, Suède (2149): Vitesse du vent & gusts: 11.07.2018 13:00:00 - 17.07.2018 13:00:00 (CEST)Arvidsjaur, Suède (2149): Direction du vent: 11.07.2018 13:00:00 - 17.07.2018 13:00:00 (CEST)Arvidsjaur, Suède (2149): reduced air pressure: 11.07.2018 13:00:00 - 17.07.2018 13:00:00 (CEST)Arvidsjaur, Suède (2149): visibility: 11.07.2018 13:00:00 - 17.07.2018 13:00:00 (CEST)Arvidsjaur, Suède (2149): Quantités de précipitations: 11.07.2018 13:00:00 - 17.07.2018 13:00:00 (CEST)
Date & Time tt [°C] td [°C] ff [km/h] ff [knt] fx [km/h] fx [knt] dd ppp [hPa] vv [km] rr [mm]
17.07.2018 13:00:00 28,9 11,5 10 6 21 11 S 1016,4 41 0,0
17.07.2018 12:00:00 28,4 11,9 10 5 19 11 S 1016,7 32 0,0
17.07.2018 11:00:00 27,2 12,4 10 5 21 11 SE 1017,1 41 0,0
17.07.2018 10:00:00 26,1 13,2 9 5 21 11 SSE 1017,3 38 0,0
17.07.2018 09:00:00 24,5 13,1 6 3 13 7 SSE 1017,6 44 0,0
17.07.2018 08:00:00 22,6 12,5 10 5 15 8 SE 1017,8 42 0,0
17.07.2018 07:00:00 20,3 13,0 9 5 13 7 SE 1018,0 46 0,0
17.07.2018 06:00:00 18,4 12,4 4 2 5 3 ESE 1018,4 46 0,0
17.07.2018 05:00:00 16,4 12,6 3 1 3 2 SE 1018,6 50 0,0
17.07.2018 04:00:00 15,0 11,2 0 0 5 3 N 1018,8 50 0,0
17.07.2018 03:00:00 14,9 12,8 0 0 5 3 N 1018,8 50 0,0
17.07.2018 02:00:00 16,1 12,6 4 2 7 4 E 1018,5 50 0,0
17.07.2018 01:00:00 16,0 12,0 7 4 15 8 ESE 1018,5 50 0,0
17.07.2018 00:00:00 19,0 12,0 6 3 16 9 SSE 1017,8 50 0,0
16.07.2018 23:00:00 20,3 12,3 12 7 21 11 SE 1016,8 50 0,0
16.07.2018 22:00:00 22,9 11,0 10 5 18 10 E 1015,8 50 0,0
16.07.2018 21:00:00 26,4 10,1 3 2 9 5 S 1015,0 50 0,0
16.07.2018 20:00:00 26,5 9,8 6 3 13 7 ESE 1014,8 50 0,0
16.07.2018 19:00:00 26,8 10,1 6 3 17 9 NE 1014,5 49 0,0
16.07.2018 18:00:00 27,0 9,8 7 4 14 8 NNW 1014,5 50 0,0
16.07.2018 17:00:00 27,4 8,8 3 1 16 9 ESE 1014,5 42 0,0
16.07.2018 16:00:00 26,8 9,6 5 3 20 11 N 1014,8 42 0,0
16.07.2018 15:00:00 26,1 10,3 7 4 18 10 SE 1015,1 48 0,0
16.07.2018 14:00:00 24,6 10,8 8 4 16 9 NW 1015,5 45 0,0
16.07.2018 13:00:00 24,0 10,6 8 4 19 10 NW 1015,7 41 0,0
16.07.2018 12:00:00 22,9 10,0 9 5 20 11 NW 1016,1 50 0,0
16.07.2018 11:00:00 21,7 9,6 9 5 18 10 WNW 1016,3 48 0,0
16.07.2018 10:00:00 20,2 9,1 10 5 18 10 W 1016,7 42 0,0
16.07.2018 09:00:00 18,9 9,7 10 5 22 12 WNW 1016,9 40 0,0
16.07.2018 08:00:00 18,0 9,9 9 5 18 10 WNW 1017,0 50 0,0
16.07.2018 07:00:00 16,6 10,7 10 6 16 8 WNW 1017,3 50 0,0
16.07.2018 06:00:00 15,3 11,3 9 5 16 8 WNW 1017,5 50 0,0
16.07.2018 05:00:00 13,3 11,2 11 6 13 7 NW 1017,7 50 0,0
16.07.2018 04:00:00 11,6 10,0 5 3 9 5 NNW 1017,9 50 0,0
16.07.2018 03:00:00 13,1 10,3 8 4 11 6 W 1017,5 50 0,0
16.07.2018 02:00:00 14,3 10,3 8 5 12 7 W 1017,0 50 0,0
16.07.2018 01:00:00 14,3 10,9 6 3 16 9 W 1016,7 50 0,0
16.07.2018 00:00:00 15,1 10,5 10 6 19 11 NW 1016,3 50 0,0
15.07.2018 23:00:00 17,1 10,7 10 5 19 10 W 1015,4 50 0,0
15.07.2018 22:00:00 18,4 10,7 12 7 24 13 WNW 1014,7 50 0,0
15.07.2018 21:00:00 20,2 10,0 13 7 25 14 WNW 1013,8 50 0,0
15.07.2018 20:00:00 21,0 9,9 15 8 28 15 WNW 1013,3 44 0,0
15.07.2018 19:00:00 21,2 9,4 22 12 34 18 WNW 1013,1 50 0,0
15.07.2018 18:00:00 21,6 8,5 21 12 34 18 WNW 1012,8 45 0,0
15.07.2018 17:00:00 23,0 8,3 19 10 31 17 W 1012,2 38 0,0
15.07.2018 16:00:00 21,9 7,3 16 9 31 17 W 1012,3 50 0,0
15.07.2018 15:00:00 22,5 6,3 19 10 32 18 WNW 1012,0 35 0,0
15.07.2018 14:00:00 22,6 6,8 14 8 27 14 W 1011,7 42 0,0
15.07.2018 13:00:00 22,2 8,3 16 9 29 16 WNW 1011,6 47 0,0
15.07.2018 12:00:00 22,1 8,2 15 8 26 14 NW 1011,5 43 0,0
15.07.2018 11:00:00 21,6 8,8 16 9 23 12 NW 1011,3 48 0,0
15.07.2018 10:00:00 22,3 8,8 8 4 16 8 WSW 1010,9 46 0,0
15.07.2018 09:00:00 20,1 10,5 8 4 19 10 NW 1011,1 48 0,0
15.07.2018 08:00:00 20,4 10,2 10 5 17 9 WNW 1010,6 44 0,0
15.07.2018 07:00:00 17,0 10,6 8 5 11 6 NW 1011,4 47 0,0
15.07.2018 06:00:00 15,9 10,9 5 3 8 5 WNW 1011,5 45 0,0
15.07.2018 05:00:00 13,1 10,8 3 1 8 4 ESE 1011,8 45 0,0
15.07.2018 04:00:00 11,4 9,1 6 3 8 5 NNW 1012,1 50 0,0
15.07.2018 03:00:00 11,0 7,7 4 2 7 4 NW 1011,9 50 0,0
15.07.2018 02:00:00 11,9 9,1 0 0 5 3 N 1011,6 50 0,0
15.07.2018 01:00:00 14,1 9,3 4 2 5 3 NW 1011,0 50 0,0
15.07.2018 00:00:00 15,0 8,0 0 0 6 3 N 1010,8 50 0,0
14.07.2018 23:00:00 18,1 8,6 0 0 3 2 N 1010,2 50 0,0
14.07.2018 22:00:00 21,1 6,2 4 2 13 7 W 1009,4 50 0,0
14.07.2018 21:00:00 23,1 6,4 9 5 21 11 WNW 1008,9 50 0,0
14.07.2018 20:00:00 24,6 5,9 10 5 22 12 W 1008,5 48 0,0
14.07.2018 19:00:00 24,9 3,5 14 8 26 14 W 1008,4 50 0,0
14.07.2018 18:00:00 25,6 6,7 8 4 28 15 WNW 1008,2 48 0,0
14.07.2018 17:00:00 25,3 8,7 13 7 22 12 W 1008,4 37 0,0
14.07.2018 16:00:00 24,2 8,2 13 7 27 14 WSW 1008,7 45 0,0
14.07.2018 15:00:00 24,5 8,4 14 8 23 12 WNW 1008,9 43 0,0
14.07.2018 14:00:00 22,3 8,4 10 6 22 12 WNW 1009,7 31 0,0
14.07.2018 13:00:00 22,4 8,9 8 5 20 11 WNW 1009,9 45 0,0
14.07.2018 12:00:00 23,3 10,4 8 4 18 10 NW 1010,2 43 0,0
14.07.2018 11:00:00 22,1 9,3 7 4 14 8 WSW 1010,7 34 0,0
14.07.2018 10:00:00 20,9 10,7 6 3 14 8 W 1011,1 41 0,0
14.07.2018 09:00:00 19,5 11,3 6 3 10 5 WNW 1011,5 47 0,0
14.07.2018 08:00:00 17,7 12,2 6 3 13 7 WNW 1012,1 42 0,0
14.07.2018 07:00:00 15,2 12,1 6 3 9 5 NW 1012,6 30 0,0
14.07.2018 06:00:00 12,7 10,6 4 2 7 4 WNW 1013,1 7 0,0
14.07.2018 05:00:00 10,7 10,7 2 1 4 2 WNW 1013,5 1,0 0,0
14.07.2018 04:00:00 9,4 8,9 0 0 4 2 N 1013,8 0,1 0,0
14.07.2018 03:00:00 9,1 7,9 3 1 5 3 SSE 1014,1 0,3 0,0
14.07.2018 02:00:00 9,8 9,0 0 0 6 3 N 1014,1 0,4 0,0
14.07.2018 01:00:00 11,1 10,0 7 4 10 6 NW 1014,2 11 0,0
14.07.2018 00:00:00 12,1 10,0 0 0 8 4 N 1014,0 28 0,0
13.07.2018 23:00:00 12,5 10,0 0 0 4 2 N 1013,8 50 0,0
13.07.2018 22:00:00 13,8 10,2 0 0 5 3 N 1013,5 50 0,0
13.07.2018 21:00:00 15,8 11,2 4 2 14 7 NW 1013,3 50 0,0
13.07.2018 20:00:00 15,8 12,0 7 4 14 7 NW 1013,4 48 0,0
13.07.2018 19:00:00 15,6 13,1 13 7 29 15 NW 1013,6 50 0,3
13.07.2018 18:00:00 16,2 10,9 3 2 33 18 WSW 1013,7 38 0,0
13.07.2018 17:00:00 21,7 9,2 10 6 19 10 SSE 1012,1 45 0,0
13.07.2018 16:00:00 22,8 8,5 13 7 21 12 SSW 1011,8 39 0,0
13.07.2018 15:00:00 23,1 8,4 10 5 16 8 SSW 1012,1 46 0,0
13.07.2018 14:00:00 21,8 9,3 11 6 18 10 SSW 1012,8 42 0,0
13.07.2018 13:00:00 21,1 9,7 14 8 29 16 S 1013,1 41 0,0
13.07.2018 12:00:00 22,8 9,9 16 8 29 15 S 1012,8 43 0,0
13.07.2018 11:00:00 23,2 9,2 10 5 21 12 SSE 1012,8 36 0,0
13.07.2018 10:00:00 22,5 8,9 14 7 22 12 SSE 1013,1 42 0,0
13.07.2018 09:00:00 22,6 10,4 5 3 10 5 ESE 1013,0 48 0,0
13.07.2018 08:00:00 20,3 10,4 4 2 9 5 ESE 1013,6 42 0,0
13.07.2018 07:00:00 18,3 9,9 0 0 4 2 N 1014,1 41 0,0
13.07.2018 06:00:00 15,1 10,5 3 2 6 3 NW 1014,7 46 0,0
13.07.2018 05:00:00 14,4 9,4 0 0 7 4 N 1014,7 41 0,0
13.07.2018 04:00:00 12,2 9,6 5 3 9 5 ESE 1015,2 43 0,0
13.07.2018 03:00:00 12,6 8,7 7 4 9 5 E 1015,2 50 0,0
13.07.2018 02:00:00 13,0 9,3 6 3 10 5 ENE 1015,3 50 0,0
13.07.2018 01:00:00 15,4 9,7 7 4 12 6 SE 1014,9 50 0,0
13.07.2018 00:00:00 16,0 10,1 6 4 9 5 SE 1015,0 50 0,0
12.07.2018 23:00:00 17,3 9,7 7 4 21 12 SE 1014,8 50 0,0
12.07.2018 22:00:00 19,7 9,6 11 6 23 12 SSE 1014,4 50 0,0
12.07.2018 21:00:00 21,1 8,7 15 8 29 16 SE 1013,8 50 0,0
12.07.2018 20:00:00 23,7 3,6 9 5 19 10 SSE 1013,2 48 0,0
12.07.2018 19:00:00 24,3 3,6 9 5 19 10 SSE 1013,3 44 0,0
12.07.2018 18:00:00 24,8 2,9 8 4 20 11 SE 1013,4 48 0,0
12.07.2018 17:00:00 25,5 2,2 9 5 21 11 S 1013,6 48 0,0
12.07.2018 16:00:00 25,1 3,7 13 7 22 12 SSE 1014,0 36 0,0
12.07.2018 15:00:00 24,4 1,9 8 4 21 12 SE 1014,7 39 0,0
12.07.2018 14:00:00 24,4 3,1 10 6 23 12 SSW 1015,1 32 0,0
12.07.2018 13:00:00 23,9 4,3 10 6 24 13 ESE 1015,6 36 0,0
12.07.2018 12:00:00 22,9 4,9 12 6 27 15 SE 1016,2 46 0,0
12.07.2018 11:00:00 22,0 5,4 11 6 25 13 SSE 1016,5 44 0,0
12.07.2018 10:00:00 21,2 6,7 8 4 25 13 SSE 1017,0 38 0,0
12.07.2018 09:00:00 20,3 7,0 10 6 19 10 SSE 1017,3 42 0,0
12.07.2018 08:00:00 19,3 7,4 10 5 17 9 SE 1017,8 46 0,0
12.07.2018 07:00:00 17,2 7,8 7 4 10 5 SSE 1018,3 43 0,0
12.07.2018 06:00:00 14,9 9,0 6 4 10 5 SE 1018,9 42 0,0
12.07.2018 05:00:00 12,9 8,8 5 3 6 3 E 1019,6 47 0,0
12.07.2018 04:00:00 12,1 9,3 3 2 8 4 ESE 1019,9 49 0,0
12.07.2018 03:00:00 10,9 8,6 3 2 9 5 E 1020,4 42 0,0
12.07.2018 02:00:00 12,1 8,4 5 3 9 5 SE 1020,3 50 0,0
12.07.2018 01:00:00 14,4 9,4 0 0 8 4 N 1020,1 50 0,0
12.07.2018 00:00:00 15,5 8,9 6 4 9 5 ESE 1020,2 50 0,0
11.07.2018 23:00:00 18,1 8,6 6 3 9 5 SE 1019,7 50 0,0
11.07.2018 22:00:00 20,8 8,1 7 4 16 9 SE 1019,3 50 0,0
11.07.2018 21:00:00 22,7 6,9 10 5 26 14 SSE 1018,8 50 0,0
11.07.2018 20:00:00 23,9 6,2 18 10 29 15 SE 1018,5 44 0,0
11.07.2018 19:00:00 25,0 6,7 17 9 26 14 ESE 1018,4 50 0,0
11.07.2018 18:00:00 25,7 5,8 11 6 31 17 SSE 1018,4 48 0,0
11.07.2018 17:00:00 26,1 5,6 9 5 25 13 S 1018,6 40 0,0
11.07.2018 16:00:00 26,3 6,3 15 8 32 17 SE 1018,9 42 0,0
11.07.2018 15:00:00 26,2 5,2 18 10 31 17 SE 1019,3 39 0,0
11.07.2018 14:00:00 26,1 7,6 13 7 27 15 SE 1019,8 31 0,0
11.07.2018 13:00:00 25,6 6,7 13 7 23 13 S 1020,2 42 0,0

tt = Température de l'air
td = dewpoint
ff = Vitesse du vent
fx = gusts
dd = Direction du vent
ppp = reduced air pressure
vv = visibility
rr = Quantités de précipitations

stations d'obs. à proximité